CDT,Max TemperatureF,Mean TemperatureF,Min TemperatureF,Max Dew PointF,MeanDew PointF,Min DewpointF,Max Humidity, Mean Humidity, Min Humidity, Max Sea Level PressureIn, Mean Sea Level PressureIn, Min Sea Level PressureIn, Max VisibilityMiles, Mean VisibilityMiles, Min VisibilityMiles, Max Wind SpeedMPH, Mean Wind SpeedMPH, Max Gust SpeedMPH,PrecipitationIn, CloudCover, Events, WindDirDegrees
2013-3-1,44,36,28,32,28,24,92,74,55,30.39,30.31,30.25,10,10,8,21,9,25,0.00,1,,358
2013-3-2,61,44,26,38,30,23,93,75,39,30.43,30.32,30.17,10,8,5,13,7,,0.00,2,,263
2013-3-3,71,52,34,36,33,28,82,51,24,30.14,29.83,29.52,10,10,10,29,15,38,0.00,0,,184
2013-3-4,64,52,39,40,36,30,74,56,38,30.13,29.73,29.48,10,10,10,33,19,46,0.00,1,,345
2013-3-5,50,41,32,26,18,14,66,44,25,30.44,30.36,30.17,10,10,10,24,17,38,0.00,1,,342
2013-3-6,48,38,28,26,23,18,75,53,38,30.45,30.31,30.13,10,10,10,18,9,,0.00,0,,142
2013-3-7,66,52,37,38,26,21,59,39,24,30.12,30.04,29.98,10,10,10,25,19,34,0.00,0,,170
2013-3-8,60,55,50,56,50,39,94,82,61,30.04,29.94,29.84,10,10,7,26,21,37,0.00,6,Rain,162
2013-3-9,68,57,43,57,48,28,100,75,30,29.84,29.70,29.58,10,6,2,32,19,39,0.05,6,Rain-Thunderstorm,201
2013-3-10,44,37,30,33,26,20,77,62,42,30.14,29.95,29.71,10,10,10,36,20,46,0.00,6,,327
2013-3-11,62,42,24,34,23,15,75,53,30,30.12,30.05,29.96,10,10,10,15,10,,0.00,0,,291
2013-3-12,59,46,35,36,32,27,82,58,42,30.36,30.22,30.00,10,10,10,17,10,,0.00,0,,33
2013-3-13,63,48,33,37,33,27,82,58,37,30.45,30.36,30.26,10,10,10,20,7,28,0.00,0,,161
2013-3-14,73,56,39,43,39,35,83,54,30,30.27,30.19,30.12,10,10,10,16,12,,0.00,0,,178
2013-3-15,81,62,44,47,42,38,80,52,26,30.10,29.90,29.72,10,10,10,21,12,25,0.00,0,,188
2013-3-16,64,55,45,45,41,34,71,57,48,29.86,29.75,29.65,10,10,10,25,17,32,0.00,0,,24
2013-3-17,53,44,35,40,34,28,89,72,57,29.90,29.80,29.67,10,10,6,26,17,34,0.00,3,,25
2013-3-18,60,48,37,38,32,22,100,70,25,30.02,29.89,29.64,10,6,1,25,14,36,0.00,3,,24
2013-3-19,57,47,37,37,31,24,74,54,44,30.24,30.09,29.99,10,10,10,18,8,22,0.00,1,,91
2013-3-20,55,42,30,34,29,26,82,57,34,30.37,30.22,29.96,10,10,10,15,8,,0.00,0,,60
2013-3-21,72,58,43,48,36,27,74,52,42,29.88,29.64,29.46,10,10,10,28,19,36,0.00,2,,143
2013-3-22,46,40,35,36,34,32,93,84,63,29.94,29.84,29.66,10,7,2,25,19,33,0.00,6,Rain-Snow,29
2013-3-23,42,36,32,39,36,29,100,91,82,30.01,29.86,29.71,10,5,1,23,10,33,0.00,8,Rain-Snow,45
2013-3-24,43,34,26,28,20,15,93,64,35,30.26,30.15,29.99,10,10,9,29,21,41,0.00,4,,342
2013-3-25,46,36,26,20,15,12,64,47,29,30.44,30.37,30.26,10,10,10,20,11,31,0.00,3,,340
2013-3-26,55,36,18,21,16,11,81,46,24,30.47,30.35,30.17,10,10,10,22,8,31,0.00,0,,180
2013-3-27,71,56,41,39,30,22,53,41,27,30.15,30.06,29.98,10,10,10,30,21,40,0.00,0,,174
2013-3-28,73,60,46,50,45,38,86,63,42,30.09,30.04,29.99,10,10,10,18,12,25,0.00,0,,163
2013-3-29,72,59,48,57,53,46,96,79,59,30.09,30.03,29.95,10,9,2,17,9,17,0.00,2,,148
2013-3-30,80,62,44,57,50,45,100,82,35,30.01,29.95,29.87,10,5,0,13,6,,0.00,1,Fog,169
2013-3-31,68,58,48,54,46,39,93,68,36,30.05,30.00,29.86,10,10,5,36,13,47,0.34,3,Rain-Thunderstorm,13